EW4939 Weather Reports


Display with metric or nautical units.
time (UTC)temp
F
wind
direction
speed
MPH
gust
MPH
rain 1hr
in
rain 24hr
in
rain mn
in
humidity
%
barometer
mb
20260904181508 94 328 3.0 6.0 0.00 0.00 0.00 55 1015.4
20260904181007 94 321 2.0 6.0 0.00 0.00 0.00 57 1015.3
20260904180507 94 328 1.0 4.0 0.00 0.00 0.00 56 1015.6
20260904180002 95 349 2.0 3.0 0.00 0.00 0.00 54 1015.6
20260904175456 95 299 1.0 3.0 0.00 0.00 0.00 55 1015.6
20260904174955 95 284 1.0 2.0 0.00 0.00 0.00 54 1015.7
20260904174450 95 38 2.0 3.0 0.00 0.00 0.00 53 1016.0
20260904173947 95 231 3.0 3.0 0.00 0.00 0.00 53 1016.1
20260904173447 95 257 3.0 7.0 0.00 0.00 0.00 54 1015.8
20260904172942 94 334 3.0 4.0 0.00 0.00 0.00 54 1016.1
20260904172437 95 281 2.0 2.0 0.00 0.00 0.00 56 1016.1
20260904171932 95 183 3.0 4.0 0.00 0.00 0.00 53 1016.2
20260904171427 94 323 2.0 4.0 0.00 0.00 0.00 54 1016.2
20260904170924 94 332 1.0 4.0 0.00 0.00 0.00 54 1016.3
20260904170418 94 278 1.0 3.0 0.00 0.00 0.00 57 1016.4
20260904165914 93 154 0.0 2.0 0.00 0.00 0.00 58 1016.3
20260904165413 94 336 3.0 3.0 0.00 0.00 0.00 57 1016.2
20260904164912 94 353 1.0 2.0 0.00 0.00 0.00 56 1016.4
20260904164412 94 231 1.0 3.0 0.00 0.00 0.00 55 1016.3
20260904163909 93 325 1.0 3.0 0.00 0.00 0.00 57 1016.2
20260904163408 93 287 1.0 7.0 0.00 0.00 0.00 55 1016.3
20260904162908 93 23 3.0 4.0 0.00 0.00 0.00 57 1016.4
20260904162403 93 12 2.0 6.0 0.00 0.00 0.00 57 1016.3
20260904161858 93 302 2.0 4.0 0.00 0.00 0.00 59 1016.6
20260904161354 92 327 2.0 4.0 0.00 0.00 0.00 58 1016.4
20260904160849 92 334 2.0 3.0 0.00 0.00 0.00 59 1016.3
20260904160345 92 325 2.0 4.0 0.00 0.00 0.00 58 1016.5
20260904155840 92 314 2.0 6.0 0.00 0.00 0.00 61 1016.4
20260904155340 91 304 3.0 6.0 0.00 0.00 0.00 60 1016.4
20260904154838 91 316 3.0 3.0 0.00 0.00 0.00 63 1016.3
20260904154333 91 208 2.0 2.0 0.00 0.00 0.00 64 1016.4
20260904153829 91 309 1.0 4.0 0.00 0.00 0.00 65 1016.5
20260904153324 90 292 2.0 3.0 0.00 0.00 0.00 66 1016.4
20260904152820 90 33 1.0 2.0 0.00 0.00 0.00 66 1016.5
20260904152315 90 316 4.0 7.0 0.00 0.00 0.00 65 1016.3
20260904151810 89 241 1.0 3.0 0.00 0.00 0.00 67 1016.3
20260904151309 89 301 2.0 3.0 0.00 0.00 0.00 68 1016.3
20260904150805 89 261 1.0 2.0 0.00 0.00 0.00 67 1016.4
20260904150300 89 8 3.0 4.0 0.00 0.00 0.00 67 1016.2
20260904145758 88 267 0.0 2.0 0.00 0.00 0.00 68 1016.3
20260904145254 88 294 0.0 2.0 0.00 0.00 0.00 68 1016.3
20260904144749 88 270 1.0 2.0 0.00 0.00 0.00 69 1016.2
20260904144245 88 198 1.0 2.0 0.00 0.00 0.00 68 1016.4
20260904143740 88 53 0.0 1.0 0.00 0.00 0.00 68 1016.2
20260904143237 88 267 0.0 2.0 0.00 0.00 0.00 69 1016.3
20260904142733 87 177 1.0 1.0 0.00 0.00 0.00 68 1016.4
20260904142229 87 267 1.0 2.0 0.00 0.00 0.00 68 1016.3
20260904141728 87 254 0.0 1.0 0.00 0.00 0.00 70 1016.2
20260904141224 87 349 1.0 1.0 0.00 0.00 0.00 69 1016.0
20260904140719 87 222 0.0 3.0 0.00 0.00 0.00 69 1016.1
20260904140215 86 234 0.0 4.0 0.00 0.00 0.00 68 1016.2
20260904135713 86 342 0.0 1.0 0.00 0.00 0.00 70 1016.2
20260904135209 86 195 0.0 2.0 0.00 0.00 0.00 69 1016.2
20260904134705 86 61 1.0 2.0 0.00 0.00 0.00 69 1016.2
20260904134204 86 234 1.0 2.0 0.00 0.00 0.00 71 1016.2
20260904133659 86 206 0.0 0.0 0.00 0.00 0.00 70 1016.4
20260904133155 85 327 0.0 2.0 0.00 0.00 0.00 72 1016.2
20260904132654 85 189 0.0 2.0 0.00 0.00 0.00 72 1016.4
20260904132150 84 255 0.0 1.0 0.00 0.00 0.00 73 1016.4
20260904131649 84 156 1.0 1.0 0.00 0.00 0.00 74 1016.3
20260904131145 84 277 0.0 2.0 0.00 0.00 0.00 73 1016.3
20260904130645 84 222 0.0 3.0 0.00 0.00 0.00 73 1016.4
20260904130144 83 214 0.0 1.0 0.00 0.00 0.00 74 1016.5
20260904125641 83 205 0.0 0.0 0.00 0.00 0.00 75 1016.4
20260904125136 83 223 0.0 2.0 0.00 0.00 0.00 75 1016.4
20260904124637 82 280 2.0 2.0 0.00 0.00 0.00 76 1016.4
20260904124133 82 259 0.0 2.0 0.00 0.00 0.00 77 1016.3
20260904123632 81 149 0.0 2.0 0.00 0.00 0.00 79 1016.1
20260904123129 80 201 0.0 0.0 0.00 0.00 0.00 83 1016.3
20260904122629 78 247 0.0 1.0 0.00 0.00 0.00 87 1016.2
20260904122124 76 198 0.0 0.0 0.00 0.00 0.00 90 1016.2
20260904121619 76 198 0.0 0.0 0.00 0.00 0.00 92 1016.1
20260904121115 76 198 0.0 0.0 0.00 0.00 0.00 92 1016.1
20260904120611 76 198 0.0 0.0 0.00 0.00 0.00 93 1015.8
20260904120107 76 198 0.0 0.0 0.00 0.00 0.00 93 1016.0
20260904115601 76 198 0.0 0.0 0.00 0.00 0.00 93 1015.8
20260904115057 75 198 0.0 0.0 0.00 0.00 0.00 93 1015.7
20260904114556 75 198 0.0 0.0 0.00 0.00 0.00 94 1015.7
20260904114056 75 198 0.0 0.0 0.00 0.00 0.00 94 1015.8
20260904113551 75 198 0.0 0.0 0.00 0.00 0.00 94 1015.6
20260904113050 75 198 0.0 0.0 0.00 0.00 0.00 94 1015.7
20260904112546 75 198 0.0 0.0 0.00 0.00 0.00 94 1015.7
20260904112042 75 198 0.0 0.0 0.00 0.00 0.00 94 1015.5
20260904111537 75 198 0.0 0.0 0.00 0.00 0.00 93 1015.3
20260904111033 75 198 0.0 0.0 0.00 0.00 0.00 92 1015.3
20260904110532 75 198 0.0 0.0 0.00 0.00 0.00 93 1015.0
20260904110029 75 198 0.0 0.0 0.00 0.00 0.00 93 1015.0
20260904105527 75 198 0.0 0.0 0.00 0.00 0.00 94 1014.9
20260904105023 75 198 0.0 0.0 0.00 0.00 0.00 94 1014.9
20260904104518 75 198 0.0 0.0 0.00 0.00 0.00 94 1014.8
20260904104014 75 198 0.0 0.0 0.00 0.00 0.00 95 1014.9
20260904103510 75 198 0.0 0.0 0.00 0.00 0.00 95 1014.8
20260904103006 75 198 0.0 0.0 0.00 0.00 0.00 95 1014.9
20260904102501 75 198 0.0 0.0 0.00 0.00 0.00 95 1015.0
20260904101956 75 198 0.0 0.0 0.00 0.00 0.00 95 1015.0
20260904101453 75 198 0.0 0.0 0.00 0.00 0.00 95 1014.9
20260904100948 75 198 0.0 0.0 0.00 0.00 0.00 95 1014.8
20260904100444 75 198 0.0 0.0 0.00 0.00 0.00 95 1015.1
20260904095943 75 198 0.0 0.0 0.00 0.00 0.00 95 1015.1
20260904095438 75 198 0.0 0.0 0.00 0.00 0.00 95 1015.1
20260904094933 75 198 0.0 0.0 0.00 0.00 0.00 95 1015.0
20260904094428 75 198 0.0 0.0 0.00 0.00 0.00 95 1015.1
20260904093924 75 198 0.0 0.0 0.00 0.00 0.00 95 1014.9
20260904093420 76 198 0.0 0.0 0.00 0.00 0.00 95 1015.0
20260904092915 76 198 0.0 0.0 0.00 0.00 0.00 95 1014.9
20260904092412 76 198 0.0 0.0 0.00 0.00 0.00 95 1014.9
20260904091907 76 198 0.0 0.0 0.00 0.00 0.00 95 1014.8
20260904091402 76 198 0.0 0.0 0.00 0.00 0.00 95 1015.0
20260904090857 76 198 0.0 0.0 0.00 0.00 0.00 95 1015.0
20260904090353 76 198 0.0 0.0 0.00 0.00 0.00 95 1015.0
20260904085848 76 198 0.0 0.0 0.00 0.00 0.00 95 1015.1
20260904085343 76 198 0.0 0.0 0.00 0.00 0.00 95 1015.0
20260904084843 76 198 0.0 0.0 0.00 0.00 0.00 95 1015.1
20260904084339 76 198 0.0 0.0 0.00 0.00 0.00 95 1015.0
20260904083835 76 198 0.0 0.0 0.00 0.00 0.00 95 1015.0
20260904083331 76 198 0.0 0.0 0.00 0.00 0.00 95 1015.1
20260904082827 76 198 0.0 0.0 0.00 0.00 0.00 95 1015.2
20260904082321 76 198 0.0 0.0 0.00 0.00 0.00 95 1015.2
20260904081816 76 198 0.0 0.0 0.00 0.00 0.00 95 1015.1
20260904081312 76 198 0.0 0.0 0.00 0.00 0.00 95 1015.0
20260904080808 76 198 0.0 0.0 0.00 0.00 0.00 95 1015.3
20260904080303 76 198 0.0 0.0 0.00 0.00 0.00 94 1015.3
20260904075759 76 198 0.0 0.0 0.00 0.00 0.00 94 1015.1
20260904075254 76 198 0.0 0.0 0.00 0.00 0.00 94 1015.1
20260904074753 76 198 0.0 0.0 0.00 0.00 0.00 94 1015.1
20260904074243 76 198 0.0 0.0 0.00 0.00 0.00 94 1015.3
20260904073738 76 198 0.0 1.0 0.00 0.00 0.00 94 1015.3
20260904073234 77 198 0.0 0.0 0.00 0.00 0.00 93 1015.3
20260904072730 76 198 0.0 1.0 0.00 0.00 0.00 94 1015.2
20260904072229 76 198 0.0 0.0 0.00 0.00 0.00 94 1015.3
20260904071725 76 198 0.0 0.0 0.00 0.00 0.00 93 1015.3
20260904071225 76 198 0.0 0.0 0.00 0.00 0.00 93 1015.2
20260904070720 76 198 0.0 0.0 0.00 0.00 0.00 93 1015.4
20260904070219 76 198 0.0 0.0 0.00 0.00 0.00 93 1015.5
20260904065714 76 198 0.0 0.0 0.00 0.00 0.00 93 1015.4
20260904065211 76 198 0.0 0.0 0.00 0.00 0.00 93 1015.6
20260904064710 76 198 0.0 0.0 0.00 0.00 0.00 93 1015.4
20260904064205 76 198 0.0 0.0 0.00 0.00 0.00 92 1015.7
20260904063701 76 198 0.0 0.0 0.00 0.00 0.00 92 1015.6
20260904063157 77 198 0.0 0.0 0.00 0.00 0.00 92 1015.6
20260904062653 77 198 0.0 0.0 0.00 0.00 0.00 91 1015.5
20260904062148 77 198 0.0 0.0 0.00 0.00 0.00 91 1015.5
20260904061644 77 198 0.0 0.0 0.00 0.00 0.00 90 1015.7
20260904061140 77 198 0.0 0.0 0.00 0.00 0.00 89 1015.8
20260904060636 77 198 0.0 0.0 0.00 0.00 0.00 89 1015.8
20260904060132 78 198 0.0 0.0 0.00 0.00 0.00 89 1015.8
20260904055632 78 198 0.0 0.0 0.00 0.00 0.00 88 1015.7
20260904055127 78 198 0.0 0.0 0.00 0.00 0.00 87 1016.0
20260904054623 78 198 0.0 0.0 0.00 0.00 0.00 87 1015.8
20260904054119 78 198 0.0 0.0 0.00 0.00 0.00 86 1015.8
20260904053614 78 198 0.0 0.0 0.00 0.00 0.00 86 1015.6
20260904053108 79 198 0.0 0.0 0.00 0.00 0.00 85 1015.8
20260904052605 79 198 0.0 0.0 0.00 0.00 0.00 86 1015.7
20260904052101 80 198 0.0 0.0 0.00 0.00 0.00 84 1016.0
20260904051557 80 198 0.0 0.0 0.00 0.00 0.00 83 1015.7
20260904051056 81 198 0.0 0.0 0.00 0.00 0.00 80 1015.7
20260904050552 81 198 0.0 0.0 0.00 0.00 0.00 80 1015.6
20260904050048 82 198 0.0 0.0 0.00 0.00 0.00 77 1015.7
20260904045543 83 198 0.0 1.0 0.00 0.00 0.00 76 1015.7
20260904045038 83 198 0.0 1.0 0.00 0.00 0.00 76 1015.8
20260904044533 82 198 1.0 1.0 0.00 0.00 0.00 76 1015.7
20260904044030 82 198 0.0 0.0 0.00 0.00 0.00 76 1015.6
20260904043526 82 198 0.0 1.0 0.00 0.00 0.00 76 1015.8
20260904043021 83 198 0.0 1.0 0.00 0.00 0.00 76 1015.6
20260904042518 83 198 1.0 1.0 0.00 0.00 0.00 76 1015.6
20260904042014 84 198 1.0 1.0 0.00 0.00 0.00 74 1015.7
20260904041509 83 198 0.0 2.0 0.00 0.00 0.00 74 1015.5
20260904041005 82 198 1.0 1.0 0.00 0.00 0.00 76 1015.5
20260904040504 82 196 0.0 1.0 0.00 0.00 0.00 76 1015.5
20260904040001 82 196 0.0 1.0 0.00 0.00 0.00 77 1015.7
20260904035457 81 196 0.0 1.0 0.00 0.00 0.00 79 1015.4
20260904034955 81 196 1.0 1.0 0.00 0.00 0.00 80 1015.6
20260904034451 81 196 1.0 1.0 0.00 0.00 0.00 81 1015.4
20260904033947 81 196 0.0 1.0 0.00 0.00 0.00 81 1015.6
20260904033443 81 196 0.0 1.0 0.00 0.00 0.00 81 1015.7
20260904032939 81 196 0.0 1.0 0.00 0.00 0.00 81 1015.5
20260904032434 82 196 0.0 1.0 0.00 0.00 0.00 80 1015.5
20260904031933 82 196 1.0 1.0 0.00 0.00 0.00 78 1016.0
20260904031433 82 196 1.0 1.0 0.00 0.00 0.00 79 1015.6
20260904030930 81 196 1.0 1.0 0.00 0.00 0.00 79 1015.7
20260904030425 81 196 1.0 1.0 0.00 0.00 0.00 81 1015.7
20260904025920 81 196 0.0 1.0 0.00 0.00 0.00 81 1015.7
20260904025416 81 196 1.0 1.0 0.00 0.00 0.00 81 1015.6
20260904024916 81 197 1.0 1.0 0.00 0.00 0.00 81 1016.0
20260904024411 82 197 0.0 1.0 0.00 0.00 0.00 79 1015.7
20260904023907 82 197 0.0 1.0 0.00 0.00 0.00 79 1016.0
20260904023403 81 215 0.0 0.0 0.00 0.00 0.00 80 1016.0
20260904022902 81 6 0.0 1.0 0.00 0.00 0.00 80 1016.0
20260904022359 82 10 1.0 1.0 0.00 0.00 0.00 80 1015.6
20260904021855 82 11 0.0 1.0 0.00 0.00 0.00 80 1015.7
20260904021350 82 12 0.0 1.0 0.00 0.00 0.00 80 1015.7
20260904020846 82 18 1.0 1.0 0.00 0.00 0.00 80 1015.7
20260904020341 82 19 1.0 1.0 0.00 0.00 0.00 81 1015.6
20260904015839 82 19 1.0 1.0 0.00 0.00 0.00 81 1015.8
20260904015335 82 19 0.0 1.0 0.00 0.00 0.00 80 1015.8
20260904014833 82 19 0.0 0.0 0.00 0.00 0.00 80 1015.7
20260904014329 82 19 0.0 0.0 0.00 0.00 0.00 80 1016.0
20260904013824 81 19 0.0 0.0 0.00 0.00 0.00 80 1016.1
20260904013320 82 19 0.0 0.0 0.00 0.00 0.00 80 1016.0
20260904012816 82 19 0.0 0.0 0.00 0.00 0.00 79 1015.8
20260904012311 82 19 0.0 0.0 0.00 0.00 0.00 78 1016.0
20260904011810 82 19 0.0 0.0 0.00 0.00 0.00 78 1016.0
20260904011306 82 19 0.0 0.0 0.00 0.00 0.00 78 1015.7
20260904010805 83 19 0.0 0.0 0.00 0.00 0.00 78 1015.8
20260904010303 83 19 0.0 0.0 0.00 0.00 0.00 76 1015.8
20260904005803 83 19 0.0 0.0 0.00 0.00 0.00 76 1015.7
20260904005258 83 19 0.0 0.0 0.00 0.00 0.00 77 1015.6
20260904004753 83 19 0.0 0.0 0.00 0.00 0.00 76 1015.6
20260904004249 84 19 0.0 0.0 0.00 0.00 0.00 76 1015.5
20260904003743 83 19 0.0 0.0 0.00 0.00 0.00 76 1015.6
20260904003240 83 19 0.0 0.0 0.00 0.00 0.00 77 1015.3
20260904002735 84 19 0.0 0.0 0.00 0.00 0.00 78 1015.4
20260904002232 84 19 0.0 0.0 0.00 0.00 0.00 77 1015.3
20260904001726 84 19 0.0 0.0 0.00 0.00 0.00 76 1015.5
20260904001225 85 19 0.0 0.0 0.00 0.00 0.00 76 1015.1
20260904000720 85 19 0.0 0.0 0.00 0.00 0.00 75 1015.3
20260904000215 85 19 0.0 1.0 0.00 0.00 0.00 75 1015.3
20260903235715 85 18 0.0 0.0 0.00 0.00 0.00 75 1015.3
20260903235212 86 18 0.0 0.0 0.00 0.00 0.00 75 1015.2
20260903234705 86 18 0.0 0.0 0.00 0.00 0.00 77 1015.2
20260903234203 87 18 0.0 0.0 0.00 0.00 0.00 73 1015.3
20260903233658 88 18 0.0 0.0 0.00 0.00 0.00 72 1015.1
20260903233154 89 18 0.0 0.0 0.00 0.00 0.00 69 1015.0
20260903232653 90 17 0.0 0.0 0.00 0.00 0.00 62 1014.9
20260903232149 91 223 0.0 0.0 0.00 0.00 0.00 62 1015.1
20260903231648 91 188 0.0 1.0 0.00 0.00 0.00 62 1015.0
20260903231143 92 184 0.0 1.0 0.00 0.00 0.00 61 1014.8
20260903230639 92 226 1.0 2.0 0.00 0.00 0.00 57 1015.0
20260903230138 92 184 0.0 2.0 0.00 0.00 0.00 58 1015.0
20260903225635 93 263 0.0 2.0 0.00 0.00 0.00 57 1015.1
20260903225131 93 207 0.0 1.0 0.00 0.00 0.00 56 1015.2
20260903224627 93 198 0.0 1.0 0.00 0.00 0.00 56 1015.2
20260903224123 94 222 0.0 3.0 0.00 0.00 0.00 55 1014.8
20260903223618 94 174 0.0 3.0 0.00 0.00 0.00 54 1015.2
20260903223116 95 200 1.0 1.0 0.00 0.00 0.00 53 1014.9
20260903222611 95 319 0.0 1.0 0.00 0.00 0.00 53 1015.0
20260903222110 95 211 0.0 3.0 0.00 0.00 0.00 52 1014.7
20260903221606 95 198 1.0 2.0 0.00 0.00 0.00 52 1014.8
20260903221103 95 8 1.0 2.0 0.00 0.00 0.00 52 1014.7
20260903220603 95 332 1.0 3.0 0.00 0.00 0.00 52 1014.5
20260903215601 96 222 2.0 3.0 0.00 0.00 0.00 51 1014.3
20260903215056 96 192 0.0 4.0 0.00 0.00 0.00 51 1014.5
20260903214555 95 153 1.0 4.0 0.00 0.00 0.00 51 1014.3
20260903214051 95 202 1.0 6.0 0.00 0.00 0.00 51 1014.4
20260903213546 96 203 1.0 3.0 0.00 0.00 0.00 50 1014.5
20260903213042 97 186 3.0 4.0 0.00 0.00 0.00 48 1014.2
20260903212537 96 289 1.0 3.0 0.00 0.00 0.00 51 1014.3
20260903212033 96 210 1.0 3.0 0.00 0.00 0.00 51 1014.5
20260903211527 95 234 1.0 1.0 0.00 0.00 0.00 50 1014.4
20260903211024 95 197 1.0 4.0 0.00 0.00 0.00 51 1014.5
20260903210525 96 228 2.0 7.0 0.00 0.00 0.00 51 1014.6
20260903210021 95 298 1.0 1.0 0.00 0.00 0.00 51 1014.4
20260903205519 96 217 2.0 3.0 0.00 0.00 0.00 49 1014.4
20260903205014 96 284 1.0 3.0 0.00 0.00 0.00 50 1014.5
20260903204510 96 330 2.0 4.0 0.00 0.00 0.00 50 1014.5
20260903204005 96 311 0.0 4.0 0.00 0.00 0.00 52 1014.7
20260903203501 95 286 2.0 4.0 0.00 0.00 0.00 50 1014.8
20260903203000 95 152 0.0 3.0 0.00 0.00 0.00 51 1015.0
20260903202456 96 205 1.0 7.0 0.00 0.00 0.00 51 1014.9
20260903201951 96 196 1.0 3.0 0.00 0.00 0.00 51 1014.9
20260903201446 95 178 0.0 3.0 0.00 0.00 0.00 51 1015.1
20260903200945 95 305 1.0 2.0 0.00 0.00 0.00 52 1015.0
20260903200440 94 213 4.0 4.0 0.00 0.00 0.00 51 1015.2
20260903195935 94 272 0.0 2.0 0.00 0.00 0.00 52 1015.3
20260903195432 94 258 1.0 2.0 0.00 0.00 0.00 51 1015.6
20260903194932 95 250 2.0 2.0 0.00 0.00 0.00 51 1015.3
20260903194427 96 305 2.0 3.0 0.00 0.00 0.00 50 1015.5
20260903193922 95 282 1.0 2.0 0.00 0.00 0.00 51 1015.6
20260903193419 96 353 1.0 2.0 0.00 0.00 0.00 51 1015.6
20260903192914 96 276 0.0 2.0 0.00 0.00 0.00 50 1015.6
20260903192410 95 324 1.0 2.0 0.00 0.00 0.00 52 1016.0
20260903191906 95 53 0.0 3.0 0.00 0.00 0.00 51 1015.6
20260903191402 96 312 1.0 3.0 0.00 0.00 0.00 51 1015.7
20260903190901 96 230 2.0 3.0 0.00 0.00 0.00 52 1016.0
20260903190355 95 209 1.0 2.0 0.00 0.00 0.00 51 1015.7
20260903185855 95 356 3.0 4.0 0.00 0.00 0.00 51 1016.0
20260903185350 94 347 0.0 3.0 0.00 0.00 0.00 52 1015.8
20260903184846 93 317 2.0 3.0 0.00 0.00 0.00 54 1016.0
20260903184343 94 279 0.0 2.0 0.00 0.00 0.00 53 1016.1
20260903183842 95 213 2.0 4.0 0.00 0.00 0.00 52 1016.1
20260903183337 95 326 2.0 3.0 0.00 0.00 0.00 51 1016.1
20260903182837 95 313 2.0 3.0 0.00 0.00 0.00 51 1016.0
20260903182336 95 318 2.0 3.0 0.00 0.00 0.00 52 1016.2